[[{"header":{"parameterUnit":"m.s-1","parameterCategory":1,"la1":30.2991,"la2":30.254,"lo1":-89.0895,"lo2":-89.0444,"dy":0.0017,"dx":0.0017,"nx":28,"ny":28,"refTime":"2025-08-09T21:00:00:Z","depth":0,"parameterNumber":2,"parameterNumberName":"U-component_of_WINDS"},"data":[0,0,0,0,0,0,0,0,0,0,0,0,0,0,0,0,0,0,0,0,0,0,0,0,0,0,0,0,0,0,0,0,0,0,0,0,0,0,0,0,0,0,0,0,0,0,0,0,0,0,0,0,0,0,0,0,0,0,-1.093,-1.0931,0,-1.1033,-1.1034,-1.1035,-1.105,-1.1049,-1.1048,-1.1047,-1.1154,-1.1158,-1.1162,0,0,0,0,0,0,0,0,0,0,0,0,0,-1.0747,-1.075,-1.0929,-1.0931,-1.0932,-1.1032,-1.1034,-1.1035,-1.105,-1.1049,-1.1048,-1.1047,-1.1153,-1.1157,-1.1162,0,0,0,0,0,0,0,0,0,0,0,0,0,-1.0835,-1.0751,-1.0929,-1.0951,-1.0954,-1.1032,-1.1034,-1.1036,-1.105,-1.1049,-1.1047,-1.1046,-1.1152,-1.1157,-1.1163,-1.1226,0,0,-1.118,-1.1182,0,0,0,0,0,0,0,0,-1.083,-1.0842,-1.0947,-1.095,-1.0954,-1.1027,-1.1009,-1.1099,-1.1051,-1.1014,-1.1047,-1.1045,-1.1113,-1.1122,-1.1144,-1.1231,-1.1235,-1.118,-1.1184,-1.1186,-1.1188,0,0,0,0,0,0,0,-1.0824,-1.0838,-1.097,-1.0948,-1.0953,-1.0957,-1.0968,-1.1026,-1.107,-1.1017,-1.1018,-1.103,-1.1115,-1.1139,-1.1147,-1.1237,-1.118,-1.1185,-1.1188,-1.1191,-1.1381,-1.1382,0,0,0,0,0,0,-1.0814,-1.0833,-1.0967,-1.0973,-1.0887,-1.0961,-1.0974,-1.1005,-1.107,-1.1078,-1.1031,-1.1031,-1.113,-1.114,-1.1151,-1.1229,-1.1186,-1.1191,-1.1194,-1.1379,-1.1381,-1.1383,0,0,0,0,0,0,-1.081,-1.0826,-1.0963,-1.0903,-1.0921,-1.0966,-1.1001,-1.1008,-1.1032,-1.1081,-1.1089,-1.1048,-1.1129,-1.1143,-1.1207,-1.1233,-1.1194,-1.1199,-1.1377,-1.1379,-1.1382,-1.1386,0,0,0,0,0,0,-1.0805,-1.0824,-1.0848,-1.0904,-1.0924,-1.1017,-1.1003,-1.1011,-1.1041,-1.1041,-1.1098,-1.1106,-1.1129,-1.1198,-1.1212,-1.124,-1.1203,-1.1375,-1.1378,-1.1381,-1.1384,-1.1389,-1.1392,0,0,0,0,0,-1.0798,-1.0846,-1.0849,-1.0866,-1.0955,-1.1018,-1.103,-1.1055,-1.1043,-1.1068,-1.11,-1.1105,-1.1228,-1.1205,-1.1221,-1.125,-1.1373,-1.1377,-1.1381,-1.1382,-1.1388,-1.1392,0,0,0,0,0,0,-1.0793,-1.0853,-1.0858,-1.0925,-1.0967,-1.1021,-1.1053,-1.106,-1.1106,-1.1104,-1.1134,-1.1146,-1.1209,-1.1236,-1.121,-1.1315,-1.13,-1.1307,-1.1295,-1.1301,-1.1305,-1.1297,-1.1208,0,0,0,0,0,-1.0799,-1.0845,-1.0896,-1.095,-1.097,-1.1008,-1.1036,-1.1052,-1.1096,-1.1114,-1.115,-1.1193,-1.1241,-1.1272,-1.132,-1.1388,-1.1401,-1.1416,-1.142,-1.1424,-1.143,-1.1468,-1.1475,-1.1395,-1.1395,-1.1395,0,0,-1.0814,-1.0853,-1.088,-1.095,-1.0984,-1.1031,-1.1023,-1.1073,-1.1108,-1.1122,-1.1184,-1.1212,-1.1262,-1.1328,-1.1359,-1.1353,-1.1454,-1.1428,-1.1431,-1.1435,-1.1472,-1.148,-1.1487,-1.1398,-1.1397,-1.1397,0,0,-1.0864,-1.0898,-1.0947,-1.098,-1.1031,-1.1056,-1.1067,-1.1121,-1.114,-1.1203,-1.1214,-1.1256,-1.1339,-1.1374,-1.1403,-1.1466,-1.1472,-1.148,-1.1503,-1.154,-1.1546,-1.1552,-1.1575,-1.1582,-1.1486,-1.1486,-1.1486,0,-1.0875,-1.0946,-1.0971,-1.1021,-1.1051,-1.1065,-1.1115,-1.1147,-1.1211,-1.1232,-1.1224,-1.1328,-1.1362,-1.1437,-1.1452,-1.1475,-1.149,-1.1474,-1.1543,-1.1549,-1.1555,-1.1577,-1.1585,-1.1487,-1.1487,-1.1487,-1.1487,0,-1.0958,-1.1007,-1.104,-1.1101,-1.1135,-1.1185,-1.1218,-1.125,-1.1262,-1.1288,-1.1352,-1.1394,-1.145,-1.1469,-1.1482,-1.1545,-1.154,-1.1537,-1.1522,-1.1563,-1.1584,-1.1592,-1.1488,-1.1488,-1.1487,-1.1487,0,0,-1.1008,-1.1081,-1.1093,-1.1121,-1.1178,-1.1216,-1.1267,-1.1321,-1.1348,-1.1391,-1.1434,-1.1504,-1.1502,-1.1534,-1.1551,-1.1584,-1.1631,-1.1577,-1.1579,-1.1586,-1.1704,-1.1706,-1.1715,-1.1635,-1.1637,-1.1638,-1.17,0,-1.1065,-1.1154,-1.1178,-1.1254,-1.1299,-1.1313,-1.1357,-1.1397,-1.1422,-1.1465,-1.1493,-1.1541,-1.1535,-1.1554,-1.1587,-1.1618,-1.1655,-1.1614,-1.1676,-1.1678,-1.1663,-1.1726,-1.1728,-1.1784,-1.1708,-1.171,-1.1711,0,-1.1143,-1.1188,-1.1268,-1.1319,-1.1339,-1.1378,-1.1429,-1.1469,-1.1515,-1.1531,-1.1567,-1.1581,-1.1635,-1.1616,-1.1691,-1.1662,-1.1689,-1.1708,-1.1711,-1.1718,-1.1697,-1.1735,-1.1803,-1.1811,-1.1724,-1.1723,-1.1722,0,-1.1172,-1.1252,-1.131,-1.1333,-1.1394,-1.1421,-1.1448,-1.1492,-1.1523,-1.1568,-1.1589,-1.1639,-1.1667,-1.1707,-1.1734,-1.1719,-1.1806,-1.179,-1.1822,-1.1821,-1.184,-1.1838,-1.1913,-1.1856,-1.1856,-1.1856,-1.1856,0,-1.1233,-1.1282,-1.1324,-1.136,-1.1415,-1.1442,-1.1496,-1.1523,-1.1562,-1.1604,-1.1619,-1.1658,-1.1691,-1.1735,-1.1757,-1.1815,-1.1828,-1.1843,-1.1848,-1.1842,-1.184,-1.186,-1.1857,-1.1858,-1.1858,-1.1858,-1.1857,0,-1.1275,-1.1305,-1.1369,-1.1421,-1.1435,-1.1474,-1.1518,-1.1554,-1.1579,-1.1632,-1.1646,-1.1686,-1.1739,-1.177,-1.1836,-1.1851,-1.1915,-1.1919,-1.19,-1.1902,-1.1931,-1.1928,-1.2022,-1.2036,-1.197,-1.197,-1.1971,0,-1.1312,-1.135,-1.1405,-1.1434,-1.1461,-1.1507,-1.1538,-1.1566,-1.1598,-1.1653,-1.1682,-1.1735,-1.1779,-1.1862,-1.1898,-1.1948,-1.1954,-1.1983,-1.1961,-1.1954,-1.1954,-1.1952,-1.1956,-1.1987,-1.1987,-1.1988,-1.1988,0,-1.1375,-1.1388,-1.1432,-1.1482,-1.1519,-1.1559,-1.16,-1.1623,-1.1657,-1.1693,-1.1746,-1.178,-1.1847,-1.19,-1.1954,-1.1982,-1.1991,-1.1994,-1.2004,-1.1998,-1.1986,-1.1993,-1.191,-1.1992,-1.1992,-1.1991,-1.1991,-1.1991,-1.1416,-1.145,-1.1494,-1.1543,-1.1576,-1.1614,-1.165,-1.1679,-1.1724,-1.178,-1.1794,-1.185,-1.1895,-1.1968,-1.1997,-1.2042,-1.2037,-1.2051,-1.2055,-1.2058,-1.2059,-1.1978,-1.2051,-1.2051,-1.2051,-1.2051,-1.2051,0,-1.148,-1.1509,-1.1554,-1.1609,-1.1648,-1.1652,-1.1697,-1.1729,-1.1778,-1.1818,-1.1861,-1.1922,-1.1973,-1.2012,-1.2065,-1.2093,-1.2099,-1.2106,-1.2104,-1.2111,-1.206,-1.2046,-1.2101,-1.2101,-1.2101,-1.2101,-1.2101,-1.2101,-1.1518,-1.1576,-1.1594,-1.1668,-1.1697,-1.1751,-1.1776,-1.1811,-1.1844,-1.1911,-1.1953,-1.1978,-1.2018,-1.2074,-1.2121,-1.2131,-1.215,-1.2157,-1.2168,-1.212,-1.2114,-1.2109,-1.2096,-1.216,-1.216,-1.2215,-1.2215,-1.2216]},{"header":{"parameterUnit":"m.s-1","parameterCategory":1,"la1":30.2991,"la2":30.254,"lo1":-89.0895,"lo2":-89.0444,"dy":0.0017,"dx":0.0017,"nx":28,"ny":28,"refTime":"2025-08-09T21:00:00:Z","depth":0,"parameterNumber":3,"parameterNumberName":"V-component_of_WINDS"},"data":[0,0,0,0,0,0,0,0,0,0,0,0,0,0,0,0,0,0,0,0,0,0,0,0,0,0,0,0,0,0,0,0,0,0,0,0,0,0,0,0,0,0,0,0,0,0,0,0,0,0,0,0,0,0,0,0,0,0,0.3223,0.3224,0,0.3273,0.3273,0.3274,0.3233,0.3231,0.323,0.3228,0.3282,0.3285,0.3288,0,0,0,0,0,0,0,0,0,0,0,0,0,0.3097,0.31,0.3223,0.3224,0.3225,0.3273,0.3273,0.3274,0.3233,0.3231,0.3229,0.3227,0.3281,0.3285,0.3288,0,0,0,0,0,0,0,0,0,0,0,0,0,0.315,0.31,0.3223,0.321,0.3209,0.3273,0.3273,0.3274,0.3234,0.3231,0.3229,0.3226,0.328,0.3284,0.3289,0.3369,0,0,0.3303,0.3305,0,0,0,0,0,0,0,0,0.3147,0.3155,0.3211,0.3211,0.321,0.3244,0.3249,0.3306,0.3234,0.3225,0.3228,0.3225,0.3272,0.3277,0.3292,0.3371,0.3373,0.3303,0.3306,0.3308,0.3309,0,0,0,0,0,0,0,0.3143,0.3152,0.3243,0.3212,0.3212,0.3203,0.3207,0.3259,0.3262,0.3225,0.3222,0.3229,0.3271,0.3287,0.3293,0.3374,0.3303,0.3307,0.331,0.3312,0.3522,0.3525,0,0,0,0,0,0,0.3141,0.3149,0.3241,0.3244,0.3172,0.3207,0.3212,0.3236,0.3261,0.3263,0.3231,0.3227,0.3281,0.3287,0.3294,0.339,0.3308,0.3312,0.3315,0.3519,0.3523,0.3526,0,0,0,0,0,0,0.3138,0.3149,0.3239,0.3196,0.3207,0.3212,0.3239,0.3238,0.3255,0.3266,0.3266,0.3247,0.3279,0.3288,0.335,0.3391,0.3314,0.3318,0.3516,0.352,0.3524,0.3582,0,0,0,0,0,0,0.3135,0.3148,0.3178,0.3197,0.3209,0.3294,0.3241,0.3241,0.3262,0.3257,0.3281,0.3282,0.3278,0.3344,0.3355,0.3396,0.3322,0.3512,0.3518,0.3523,0.3576,0.3587,0.3597,0,0,0,0,0,0.313,0.3193,0.318,0.3191,0.3247,0.3296,0.3303,0.3296,0.3266,0.3296,0.3303,0.3282,0.3385,0.335,0.3363,0.3406,0.351,0.3516,0.3522,0.3571,0.3585,0.3597,0,0,0,0,0,0,0.318,0.3195,0.3181,0.3252,0.3273,0.3289,0.3327,0.331,0.3342,0.3336,0.3326,0.3332,0.3397,0.3408,0.3369,0.3485,0.3442,0.3452,0.3476,0.3489,0.3499,0.3496,0.3326,0,0,0,0,0,0.3199,0.3237,0.3249,0.331,0.3321,0.3323,0.3344,0.3336,0.3358,0.3367,0.3379,0.3402,0.3439,0.3464,0.35,0.3577,0.3582,0.3613,0.3623,0.3632,0.364,0.3682,0.3696,0.3547,0.3547,0.3547,0,0,0.324,0.3252,0.3277,0.3321,0.3336,0.3377,0.333,0.3375,0.3406,0.3374,0.3434,0.3443,0.3468,0.3538,0.357,0.3549,0.3682,0.364,0.3647,0.365,0.369,0.3705,0.3717,0.3551,0.355,0.355,0,0,0.3334,0.3347,0.3399,0.3416,0.3439,0.3439,0.3452,0.3471,0.3476,0.3534,0.3512,0.3548,0.3613,0.3632,0.365,0.3751,0.3733,0.3763,0.3818,0.3859,0.3871,0.3881,0.3918,0.3931,0.3771,0.3771,0.3771,0,0.3381,0.344,0.3429,0.3475,0.3495,0.3467,0.3521,0.3538,0.3572,0.3587,0.3563,0.3644,0.3659,0.3733,0.3758,0.3773,0.3788,0.376,0.387,0.388,0.389,0.3925,0.3938,0.3774,0.3774,0.3774,0.3773,0,0.3498,0.3539,0.3579,0.3611,0.3636,0.3686,0.3683,0.3709,0.3699,0.3703,0.3763,0.378,0.3818,0.3835,0.3826,0.3909,0.3895,0.3871,0.3828,0.3908,0.394,0.3954,0.378,0.3778,0.3777,0.3776,0,0,0.3626,0.365,0.3666,0.368,0.3704,0.3736,0.3785,0.3821,0.3844,0.3869,0.391,0.3965,0.3942,0.3963,0.3956,0.3992,0.4072,0.3963,0.3964,0.3983,0.4164,0.4183,0.4199,0.4059,0.4062,0.4064,0.4163,0,0.3721,0.3805,0.3796,0.3877,0.3915,0.3889,0.3932,0.3951,0.3956,0.399,0.3995,0.4034,0.4001,0.4013,0.4047,0.4055,0.4108,0.4047,0.4099,0.4101,0.4094,0.4216,0.4236,0.4329,0.4175,0.4177,0.4179,0,0.3844,0.3872,0.3956,0.3973,0.3989,0.4027,0.406,0.4092,0.4114,0.4115,0.4138,0.4124,0.4175,0.413,0.42,0.4159,0.4179,0.4186,0.419,0.4195,0.4145,0.4226,0.4358,0.4372,0.4199,0.4197,0.4196,0,0.393,0.3988,0.4046,0.4059,0.4081,0.4108,0.4119,0.4138,0.4161,0.4189,0.4204,0.4238,0.4258,0.4285,0.4282,0.425,0.4353,0.4308,0.4356,0.4357,0.438,0.4379,0.4519,0.4392,0.4392,0.4391,0.4391,0,0.4038,0.4091,0.4085,0.412,0.4179,0.4168,0.4227,0.4234,0.4251,0.4289,0.4269,0.4304,0.4297,0.4333,0.4331,0.439,0.4398,0.4401,0.44,0.4404,0.4403,0.4418,0.4412,0.4395,0.4394,0.4394,0.4393,0,0.4144,0.4142,0.4203,0.4219,0.4224,0.4266,0.428,0.4314,0.4316,0.4364,0.4374,0.4378,0.4419,0.4418,0.4466,0.4464,0.4536,0.4528,0.4529,0.4527,0.4575,0.4571,0.473,0.4751,0.461,0.4611,0.4612,0,0.4214,0.4254,0.4273,0.4296,0.4308,0.4345,0.4367,0.4359,0.4383,0.4411,0.4442,0.4481,0.4512,0.4579,0.4587,0.4624,0.4616,0.4669,0.4621,0.4624,0.4618,0.4616,0.462,0.4679,0.4681,0.4682,0.4683,0,0.4338,0.4335,0.4367,0.4399,0.4426,0.4451,0.4474,0.4495,0.4488,0.4517,0.4558,0.4582,0.463,0.4669,0.4704,0.4716,0.4699,0.4697,0.4711,0.4715,0.4714,0.4716,0.4555,0.4694,0.4693,0.4692,0.4692,0.4691,0.4429,0.4463,0.4481,0.4518,0.4534,0.4556,0.4589,0.4595,0.4628,0.4666,0.4659,0.4705,0.4727,0.4771,0.4786,0.4824,0.4805,0.4824,0.4829,0.4834,0.484,0.4708,0.483,0.4829,0.4829,0.4829,0.4829,0,0.4552,0.4563,0.4597,0.4629,0.4658,0.4637,0.4662,0.4688,0.4729,0.475,0.478,0.4828,0.4866,0.4876,0.4913,0.4941,0.4934,0.4951,0.495,0.4953,0.4854,0.4839,0.4956,0.4956,0.4956,0.4956,0.4956,0.4956,0.462,0.4677,0.4676,0.4741,0.4751,0.4796,0.4811,0.4832,0.4848,0.4902,0.4933,0.4939,0.4956,0.4994,0.5028,0.503,0.5046,0.5066,0.5065,0.4973,0.496,0.4948,0.4934,0.5069,0.5069,0.5161,0.5162,0.5163]}]]